• în Republica Moldova
  • Lista ţărilor
  • Pe 7 zile
  • Temperatura apei
  • Hartă satelitară
  • Meteo pe hartă
  • Widget-uri
  • user-avatar
    Intrare

    Meteo pe oră la Klagenfurt

    Astăzi, 19 Ianuarie, Joi

    Timp Temperatura Precipitaţii Vânt Presiune Umiditate
    00:00 -10°C° 0 mm 2 m/s 696 mmHg 92%
    01:00 -9°C° 0 mm 1 m/s 696 mmHg 93%
    02:00 -10°C° 0 mm 2 m/s 696 mmHg 93%
    03:00 -10°C° 0 mm 2 m/s 696 mmHg 93%
    04:00 -12°C° 0 mm 2 m/s 696 mmHg 92%
    05:00 -12°C° 0 mm 2 m/s 696 mmHg 92%
    06:00 -12°C° 0 mm 2 m/s 696 mmHg 92%
    07:00 -13°C° 0 mm 2 m/s 696 mmHg 93%
    08:00 -10°C° 0 mm 2 m/s 697 mmHg 90%
    09:00 -8°C° 0 mm 2 m/s 697 mmHg 86%
    10:00 -6°C° 0 mm 2 m/s 698 mmHg 83%
    11:00 -5°C° 0 mm 2 m/s 698 mmHg 82%
    12:00 -4°C° 0 mm 2 m/s 698 mmHg 81%
    13:00 -3°C° 0 mm 2 m/s 698 mmHg 81%
    14:00 -4°C° 0 mm 2 m/s 698 mmHg 85%
    15:00 -5°C° 0 mm 2 m/s 697 mmHg 88%
    16:00 -4°C° 0 mm 1 m/s 697 mmHg 91%
    17:00 -6°C° 0 mm 1 m/s 697 mmHg 92%
    18:00 -8°C° 0 mm 1 m/s 697 mmHg 93%
    19:00 -10°C° 0 mm 1 m/s 697 mmHg 95%
    20:00 -10°C° 0 mm 1 m/s 697 mmHg 94%
    21:00 -10°C° 0 mm 1 m/s 697 mmHg 94%
    22:00 -11°C° 0 mm 1 m/s 697 mmHg 94%
    23:00 -11°C° 0 mm 1 m/s 697 mmHg 93%

    Mâine, 20 Ianuarie, Vineri

    Timp Temperatura Precipitaţii Vânt Presiune Umiditate
    00:00 -11°C° 0 mm 1 m/s 697 mmHg 93%
    01:00 -12°C° 0 mm 1 m/s 697 mmHg 93%
    02:00 -12°C° 0 mm 1 m/s 697 mmHg 92%
    03:00 -12°C° 0 mm 1 m/s 697 mmHg 92%
    04:00 -12°C° 0 mm 1 m/s 697 mmHg 91%
    05:00 -12°C° 0 mm 1 m/s 697 mmHg 91%
    06:00 -12°C° 0 mm 1 m/s 697 mmHg 90%
    07:00 -12°C° 0 mm 1 m/s 696 mmHg 89%
    08:00 -10°C° 0 mm 1 m/s 697 mmHg 85%
    09:00 -7°C° 0 mm 1 m/s 698 mmHg 81%
    10:00 -4°C° 0 mm 1 m/s 699 mmHg 76%
    11:00 -3°C° 0 mm 1 m/s 699 mmHg 76%
    12:00 -2°C° 0 mm 1 m/s 699 mmHg 76%
    13:00 -1°C° 0 mm 1 m/s 698 mmHg 75%
    14:00 -2°C° 0 mm 1 m/s 698 mmHg 80%
    15:00 -3°C° 0 mm 1 m/s 698 mmHg 85%
    16:00 -4°C° 0 mm 1 m/s 697 mmHg 89%
    17:00 -7°C° 0 mm 1 m/s 697 mmHg 92%
    18:00 -8°C° 0 mm 1 m/s 697 mmHg 94%
    19:00 -10°C° 0 mm 1 m/s 696 mmHg 96%
    20:00 -10°C° 0 mm 1 m/s 696 mmHg 95%
    21:00 -10°C° 0 mm 1 m/s 696 mmHg 95%
    22:00 -11°C° 0 mm 1 m/s 696 mmHg 95%
    23:00 -11°C° 0 mm 1 m/s 696 mmHg 95%

    Poimâine, 21 Ianuarie, Sâmbătă

    Timp Temperatura Precipitaţii Vânt Presiune Umiditate
    00:00 -11°C° 0 mm 1 m/s 696 mmHg 94%
    01:00 -11°C° 0 mm 1 m/s 696 mmHg 94%
    02:00 -11°C° 0 mm 1 m/s 696 mmHg 94%
    03:00 -11°C° 0 mm 1 m/s 696 mmHg 94%
    04:00 -11°C° 0 mm 1 m/s 695 mmHg 93%
    05:00 -11°C° 0 mm 1 m/s 695 mmHg 93%
    06:00 -11°C° 0 mm 1 m/s 695 mmHg 93%
    07:00 -11°C° 0 mm 1 m/s 695 mmHg 92%
    08:00 -8°C° 0 mm 1 m/s 696 mmHg 87%
    09:00 -6°C° 0 mm 1 m/s 697 mmHg 82%
    10:00 -2°C° 0 mm 1 m/s 698 mmHg 78%
    11:00 -1°C° 0 mm 1 m/s 697 mmHg 77%
    12:00 0°C° 0 mm 1 m/s 697 mmHg 77%
    13:00 +1°C° 0 mm 1 m/s 697 mmHg 77%
    14:00 0°C° 0 mm 1 m/s 697 mmHg 82%
    15:00 -1°C° 0 mm 1 m/s 696 mmHg 87%
    16:00 -2°C° 0 mm 1 m/s 696 mmHg 92%
    17:00 -4°C° 0 mm 1 m/s 696 mmHg 93%
    18:00 -7°C° 0 mm 1 m/s 695 mmHg 95%
    19:00 -8°C° 0 mm 1 m/s 695 mmHg 96%
    20:00 -8°C° 0 mm 1 m/s 695 mmHg 96%
    21:00 -8°C° 0 mm 1 m/s 696 mmHg 95%
    22:00 -8°C° 0 mm 1 m/s 696 mmHg 95%
    23:00 -9°C° 0 mm 1 m/s 696 mmHg 95%

    22 Ianuarie, Duminică

    Timp Temperatura Precipitaţii Vânt Presiune Umiditate
    00:00 -9°C° 0 mm 1 m/s 696 mmHg 95%
    01:00 -9°C° 0 mm 1 m/s 696 mmHg 94%
    02:00 -9°C° 0 mm 1 m/s 696 mmHg 95%
    03:00 -9°C° 0 mm 1 m/s 695 mmHg 95%
    04:00 -9°C° 0 mm 1 m/s 695 mmHg 95%
    05:00 -10°C° 0 mm 1 m/s 695 mmHg 95%
    06:00 -10°C° 0 mm 1 m/s 695 mmHg 95%
    07:00 -10°C° 0 mm 1 m/s 695 mmHg 95%
    08:00 -8°C° 0 mm 1 m/s 695 mmHg 91%
    09:00 -6°C° 0 mm 1 m/s 696 mmHg 87%
    10:00 -3°C° 0 mm 1 m/s 696 mmHg 83%
    11:00 -2°C° 0 mm 1 m/s 696 mmHg 81%
    12:00 -1°C° 0 mm 1 m/s 696 mmHg 79%
    13:00 0°C° 0 mm 1 m/s 696 mmHg 76%
    14:00 -1°C° 0 mm 1 m/s 695 mmHg 80%
    15:00 -2°C° 0 mm 1 m/s 695 mmHg 85%
    16:00 -3°C° 0 mm 1 m/s 695 mmHg 89%
    17:00 -4°C° 0 mm 1 m/s 694 mmHg 90%
    18:00 -7°C° 0 mm 1 m/s 694 mmHg 91%
    19:00 -8°C° 0 mm 1 m/s 694 mmHg 93%
    20:00 -8°C° 0 mm 1 m/s 694 mmHg 91%
    21:00 -8°C° 0 mm 1 m/s 694 mmHg 90%
    22:00 -8°C° 0 mm 1 m/s 694 mmHg 89%
    23:00 -8°C° 0 mm 1 m/s 693 mmHg 88%

    23 Ianuarie, Luni

    Timp Temperatura Precipitaţii Vânt Presiune Umiditate
    00:00 -8°C° 0 mm 1 m/s 693 mmHg 87%
    01:00 -8°C° 0 mm 1 m/s 693 mmHg 87%
    02:00 -8°C° 0 mm 1 m/s 692 mmHg 86%
    03:00 -8°C° 0 mm 1 m/s 692 mmHg 86%
    04:00 -8°C° 0 mm 1 m/s 692 mmHg 86%
    05:00 -8°C° 0 mm 1 m/s 692 mmHg 87%
    06:00 -8°C° 0 mm 1 m/s 692 mmHg 87%
    07:00 -8°C° 0 mm 1 m/s 691 mmHg 88%
    08:00 -4°C° 0 mm 1 m/s 692 mmHg 84%
    09:00 -2°C° 0 mm 1 m/s 692 mmHg 79%
    10:00 0°C° 0 mm 1 m/s 693 mmHg 75%
    11:00 +1°C° 0 mm 1 m/s 693 mmHg 76%
    12:00 +2°C° 0 mm 1 m/s 693 mmHg 77%
    13:00 +3°C° 0 mm 1 m/s 692 mmHg 77%
    14:00 +2°C° 0 mm 1 m/s 692 mmHg 81%
    15:00 +1°C° 0 mm 1 m/s 691 mmHg 86%
    16:00 0°C° 0 mm 1 m/s 691 mmHg 90%
    17:00 -1°C° 0 mm 1 m/s 690 mmHg 91%
    18:00 -3°C° 0 mm 1 m/s 690 mmHg 93%
    19:00 -4°C° 0 mm 1 m/s 690 mmHg 95%
    20:00 -6°C° 0 mm 1 m/s 690 mmHg 95%
    21:00 -6°C° 0 mm 1 m/s 689 mmHg 95%
    22:00 -6°C° 0 mm 1 m/s 689 mmHg 95%
    23:00 -6°C° 0 mm 1 m/s 689 mmHg 94%

    24 Ianuarie, Marţi

    Timp Temperatura Precipitaţii Vânt Presiune Umiditate
    00:00 -6°C° 0 mm 1 m/s 689 mmHg 94%
    01:00 -6°C° 0 mm 1 m/s 689 mmHg 94%
    02:00 -4°C° 0 mm 1 m/s 689 mmHg 93%
    03:00 -4°C° 0 mm 1 m/s 689 mmHg 93%
    04:00 -4°C° 0 mm 1 m/s 689 mmHg 93%
    05:00 -4°C° 0 mm 1 m/s 689 mmHg 93%
    06:00 -4°C° 0 mm 1 m/s 689 mmHg 93%
    07:00 -4°C° 0 mm 1 m/s 689 mmHg 93%
    08:00 -3°C° 0 mm 1 m/s 689 mmHg 90%
    09:00 -2°C° 0 mm 1 m/s 690 mmHg 88%
    10:00 -1°C° 0 mm 1 m/s 690 mmHg 85%
    11:00 0°C° 0 mm 1 m/s 690 mmHg 83%
    12:00 -2°C° 0 mm 2 m/s 690 mmHg 82%
    13:00 -1°C° 0 mm 2 m/s 690 mmHg 80%
    14:00 0°C° 0 mm 1 m/s 690 mmHg 83%
    15:00 0°C° 0 mm 1 m/s 690 mmHg 86%
    16:00 -1°C° 0 mm 1 m/s 690 mmHg 89%
    17:00 -2°C° 0 mm 1 m/s 690 mmHg 90%
    18:00 -4°C° 0 mm 1 m/s 690 mmHg 92%
    19:00 -6°C° 0 mm 1 m/s 690 mmHg 93%
    20:00 -6°C° 0 mm 1 m/s 690 mmHg 93%
    21:00 -7°C° 0 mm 1 m/s 690 mmHg 93%
    22:00 -7°C° 0 mm 1 m/s 690 mmHg 92%
    23:00 -8°C° 0 mm 1 m/s 690 mmHg 92%
    Arată mai mult